Satellite: MET-2/21
Catalog number: 22782
Epoch time:      10321.66833701
Element set:     940
Inclination:      082.5447 deg
RA of node:       130.6955 deg
Eccentricity:    0.0021867
Arg of perigee:   335.9778 deg
Mean anomaly:     024.0363 deg
Mean motion:   13.83649723 rev/day
Decay rate:        1.0e-08 rev/day^2
Epoch rev:           86930
Checksum:              308

Satellite: OKEAN-4
Catalog number: 23317
Epoch time:      10321.76912959
Element set:    0398
Inclination:      082.5416 deg
RA of node:       210.5000 deg
Eccentricity:    0.0023841
Arg of perigee:   094.8975 deg
Mean anomaly:     265.4945 deg
Mean motion:   14.82895202 rev/day
Decay rate:       3.19e-06 rev/day^2
Epoch rev:           86921
Checksum:              314

Satellite: NOAA-14
Catalog number: 23455
Epoch time:      10321.78619211
Element set:    0268
Inclination:      098.8690 deg
RA of node:       041.3796 deg
Eccentricity:    0.0009604
Arg of perigee:   155.1037 deg
Mean anomaly:     205.0601 deg
Mean motion:   14.13799996 rev/day
Decay rate:       -1.7e-07 rev/day^2
Epoch rev:           81920
Checksum:              305

Satellite: NOAA-15
Catalog number: 25338
Epoch time:      10321.52011977
Element set:    0597
Inclination:      098.6355 deg
RA of node:       305.8214 deg
Eccentricity:    0.0010565
Arg of perigee:   354.0325 deg
Mean anomaly:     006.0737 deg
Mean motion:   14.24865690 rev/day
Decay rate:      -1.02e-06 rev/day^2
Epoch rev:           65058
Checksum:              291

Satellite: RESURS
Catalog number: 25394
Epoch time:      10322.62699039
Element set:     654
Inclination:      098.3007 deg
RA of node:       332.2684 deg
Eccentricity:    0.0002045
Arg of perigee:   104.0242 deg
Mean anomaly:     256.1162 deg
Mean motion:   14.24215874 rev/day
Decay rate:        1.4e-07 rev/day^2
Epoch rev:           64233
Checksum:              263

Satellite: FENGYUN1
Catalog number: 25730
Epoch time:      10321.77004085
Element set:     186
Inclination:      098.8009 deg
RA of node:       282.8356 deg
Eccentricity:    0.0019944
Arg of perigee:   190.5913 deg
Mean anomaly:     169.4838 deg
Mean motion:   14.08411828 rev/day
Decay rate:      1.241e-05 rev/day^2
Epoch rev:           59330
Checksum:              306

Satellite: OKEAN-0
Catalog number: 25860
Epoch time:      10321.86880324
Element set:     152
Inclination:      097.8548 deg
RA of node:       289.5255 deg
Eccentricity:    0.0000989
Arg of perigee:   043.0483 deg
Mean anomaly:     317.0802 deg
Mean motion:   14.73683626 rev/day
Decay rate:       2.06e-06 rev/day^2
Epoch rev:           60953
Checksum:              308

Satellite: NOAA-16
Catalog number: 26536
Epoch time:      10321.57720590
Element set:    0073
Inclination:      099.1633 deg
RA of node:       342.6065 deg
Eccentricity:    0.0009809
Arg of perigee:   267.1249 deg
Mean anomaly:     092.8798 deg
Mean motion:   14.12583666 rev/day
Decay rate:      -2.70e-06 rev/day^2
Epoch rev:           52348
Checksum:              322

Satellite: NOAA-17
Catalog number: 27453
Epoch time:      10321.71538265
Element set:    0065
Inclination:      098.4118 deg
RA of node:       005.8191 deg
Eccentricity:    0.0012504
Arg of perigee:   051.5692 deg
Mean anomaly:     308.6594 deg
Mean motion:   14.24210158 rev/day
Decay rate:       1.53e-06 rev/day^2
Epoch rev:           43655
Checksum:              284

Satellite: NOAA-18
Catalog number: 28654
Epoch time:      10321.78080918
Element set:    0555
Inclination:      098.9686 deg
RA of node:       267.7280 deg
Eccentricity:    0.0014168
Arg of perigee:   343.9187 deg
Mean anomaly:     016.1556 deg
Mean motion:   14.11408388 rev/day
Decay rate:       1.58e-06 rev/day^2
Epoch rev:           28310
Checksum:              330

Satellite: NOAA-19
Catalog number: 33591
Epoch time:      10321.73146201
Element set:    0750
Inclination:      098.8044 deg
RA of node:       260.6912 deg
Eccentricity:    0.0013617
Arg of perigee:   212.0490 deg
Mean anomaly:     147.9848 deg
Mean motion:   14.11104471 rev/day
Decay rate:       2.11e-06 rev/day^2
Epoch rev:           09156
Checksum:              269

/EX
SB KEPS @ AMSAT  $ORB10322.M
Orbital Elements  10322.MISC

HR AMSAT ORBITAL ELEMENTS FOR MANNED AND MISCELLANEOUS SATELLITES
FROM WA5QGD FORT WORTH,TX November 18, 2010
BID: ORB10322.M
TO ALL RADIO AMATEURS BT

Satellite: HUBBLE
Catalog number: 20580
Epoch time:      10322.23800227
Element set:     677
Inclination:      028.4711 deg
RA of node:       314.0931 deg
Eccentricity:    0.0003174
Arg of perigee:   044.1313 deg
Mean anomaly:     315.9453 deg
Mean motion:   15.01096561 rev/day
Decay rate:       8.11e-06 rev/day^2
Epoch rev:           92792
Checksum:              254

Satellite: ISS
Catalog number: 25544
Epoch time:      10322.29145833
Element set:     298
Inclination:      051.6439 deg
RA of node:       161.9899 deg
Eccentricity:    0.0007603
Arg of perigee:   212.9096 deg
Mean anomaly:     126.3632 deg
Mean motion:   15.72878646 rev/day
Decay rate:     1.8412e-04 rev/day^2
Epoch rev:           68770
Checksum:              326

Satellite: CO-58
Catalog number: 28895
Epoch time:      10321.36809098
Element set:    0730
Inclination:      097.9922 deg
RA of node:       200.5774 deg
Eccentricity:    0.0018322
Arg of perigee:   161.7705 deg
Mean anomaly:     198.4144 deg
Mean motion:   14.59964909 rev/day
Decay rate:       2.22e-06 rev/day^2
Epoch rev:           26933
Checksum:              337

